This is the latest recevied weather packets stored in our database for station/object KE5OYL. If no packets are shown the sender has not sent any weather packets the latest 10 day(s).
| Time | Temp. | Humidity | Pressure | Rain* | Wind** | Luminosity | Snow |
|---|---|---|---|---|---|---|---|
| 1777813022 | 17.78° C | 58% | 1021.6 hPa | 0 mm | - | 98 W/m² | - |
| 1777812719 | 17.78° C | 60% | 1021.7 hPa | 0 mm | - | 85 W/m² | - |
| 1777812415 | 17.78° C | 60% | 1021.7 hPa | 0 mm | - | 74 W/m² | - |
| 1777812114 | 17.22° C | 60% | 1021.6 hPa | 0 mm | - | 66 W/m² | - |
| 1777811812 | 17.22° C | 60% | 1021.5 hPa | 0 mm | - | 40 W/m² | - |
| 1777811509 | 17.22° C | 61% | 1021.6 hPa | 0 mm | - | 48 W/m² | - |
| 1777811205 | 17.22° C | 61% | 1021.4 hPa | 0 mm | - | 33 W/m² | - |
| 1777810903 | 16.67° C | 62% | 1021.5 hPa | 0 mm | - | 34 W/m² | - |
| 1777810598 | 16.67° C | 62% | 1021.3 hPa | 0 mm | - | 30 W/m² | - |
| 1777810296 | 16.67° C | 62% | 1021.2 hPa | 0 mm | - | 25 W/m² | - |
| 1777809991 | 16.67° C | 63% | 1021.2 hPa | 0 mm | - | 21 W/m² | - |
| 1777809690 | 16.67° C | 63% | 1021.2 hPa | 0 mm | - | 17 W/m² | - |
| 1777809387 | 16.67° C | 63% | 1021.1 hPa | 0 mm | - | 14 W/m² | - |
| 1777809085 | 16.67° C | 63% | 1021.3 hPa | 0 mm | - | 10 W/m² | - |
| 1777808782 | 16.67° C | 63% | 1021.1 hPa | 0 mm | - | 7 W/m² | - |
| 1777808479 | 16.67° C | 62% | 1021.1 hPa | 0 mm | - | 4 W/m² | - |
| 1777808176 | 16.67° C | 62% | 1021 hPa | 0 mm | - | 2 W/m² | - |
| 1777807875 | 16.67° C | 62% | 1021.1 hPa | 0 mm | - | 1 W/m² | - |
| 1777807572 | 16.67° C | 61% | 1021 hPa | 0 mm | - | 0 W/m² | - |
| 1777807269 | 16.67° C | 61% | 1020.9 hPa | 0 mm | - | 0 W/m² | - |
| 1777806965 | 16.67° C | 60% | 1021.2 hPa | 0 mm | - | 0 W/m² | - |
| 1777806661 | 16.67° C | 60% | 1020.8 hPa | 0 mm | - | 0 W/m² | - |
| 1777806357 | 16.67° C | 59% | 1020.8 hPa | 0 mm | - | 0 W/m² | - |
| 1777806055 | 16.67° C | 59% | 1020.8 hPa | 0 mm | - | 0 W/m² | - |
| 1777805751 | 16.67° C | 59% | 1020.9 hPa | 0 mm | - | 0 W/m² | - |
* Rain latest hour (hover to see other rain measurements)
** Current wind speed in m/s (hover to see current wind gust speed)